THORAD DELTA 1 DEB, 42619

Orbit data source: Space-Track

THORAD DELTA 1 DEB, 42619 is space debris in SSO originally from a launch on Fri, 15 Nov 1974 UTC launched from the Air Force Western Test Range (AFWTR). Debris objects in space refer to the collection of defunct objects orbiting the Earth. Examples of debris include non-operational satellites, rocket bodies, and fragments generated from explosions, collisions, or faulty payload assembly.

Loading next visibility...
Identifier
42619, 1974-089GL
Orbit
SSO
Country
Flag of USUS
Related business
Manufacturer
Unknown
Mission
Spacecraft
Bus & Motor
Unknown
Mass
Unknown
Launch date (UTC)
1974-11-15 (51 years ago)
Launch vehicle
Unknown
Launch site
Air Force Western Test Range (AFWTR)
Object type
Payload
Rocket body
Debris
Shape & HBR
Unknown shape, 0.1 m
Radar Cross Section
Small (<0.1 m²)

Expand to show TLE details & history
Last TLE update: 23 hours ago

TLE from 23 hours ago
0 THORAD DELTA 1 DEB
1 42619U 74089GL  26070.72929010  .00001631  00000-0  26271-2 0  9996
2 42619 102.0460  50.7717 0177883 261.1725 279.8524 13.44716419601006
Epoch: 2026-03-11T17:30Z
TLE epoch observation values (Epoch: 2026-03-11T17:30:10.664Z)
Latitude
0.864°
Longitude
159.02136°
Altitude
1,073.908 km
Speed
7.325 km/s
True Right ascension
15h 23m 49s
True Declination
0° 51' 33"
Sunlit
Object was in partial shadow at epoch
Visualization orbit readout
Latitude
Unknown
Longitude
Unknown
Altitude
Unknown
Speed
Unknown
Apparent Right ascension
Unknown
Apparent Declination
Unknown
Sunlit
N/A
Visualization observer readout
Local Sidereal Time
20:36:54
Azimuth
Unknown
Elevation
Unknown
Doppler factor
Unknown
Orbital elements
Apogee altitude
1,222.034 km
Perigee altitude
956.372 km
Semi-major axis
7,467.34 km
Eccentricity
0.01779
Inclination
102.046°
RAAN
50.7717°
Arg. of periapsis
261.1725°
True anomaly
277.83682°
Mean anomaly
279.8524°
Eccentric anomaly
278.84533°
Mean motion
3.36352 °/min
Orbital period
107.03 mins
BSTAR
0.0026271
Loading maneuver chart data...
Computing Atmospheric mass density...
Loading historical data...
Loading historical data...
Loading historical data...
Loading historical data...
Loading historical data...
Loading historical data...
Loading historical data...

Documentation

Showing up to 5 results
|